Date,TemperatureHighF,TemperatureAvgF,TemperatureLowF,DewpointHighF,DewpointAvgF,DewpointLowF,HumidityHigh,HumidityAvg,HumidityLow,PressureMaxIn,PressureMinIn,WindSpeedMaxMPH,WindSpeedAvgMPH,GustSpeedMaxMPH,PrecipitationSumIn
2013-11-1,77.7,64.9,53.8,62.0,56.6,46.8,99,78,37,30.79,28.62,9,3,9,0.19
2013-11-2,57.4,48.7,43.3,47.3,33.8,21.6,96,59,30,29.20,27.03,21,7,21,0.00
2013-11-3,50.7,42.2,33.6,37.5,28.8,19.8,99,63,31,28.69,27.04,17,5,17,0.00
2013-11-4,51.3,38.4,30.4,32.8,22.7,5.1,99,63,15,28.80,27.03,5,2,5,0.00
2013-11-5,55.6,40.8,27.7,45.4,30.9,9.4,99,76,19,28.15,27.03,5,1,5,0.01
2013-11-6,59.5,51.1,45.5,55.1,49.9,45.2,99,96,79,29.66,28.09,6,2,6,0.09
2013-11-7,56.8,45.6,33.8,56.6,42.1,26.9,99,88,69,29.31,27.77,19,6,19,0.05
2013-11-8,45.1,34.8,27.1,26.7,13.8,-7.1,77,48,11,28.02,27.05,17,7,17,0.04
2013-11-9,54.3,41.1,26.2,21.9,11.8,-3.9,74,34,10,29.17,27.22,5,1,5,0.00
2013-11-10,59.4,47.0,37.8,27.0,7.0,-9.0,51,22,10,0.00,40.00,17,8,17,0.00
2013-11-11,59.5,48.1,24.6,14.8,-1.2,-12.5,63,15,10,30.09,0.00,9,2,9,0.00
2013-11-12,47.1,27.2,18.9,30.9,12.1,-8.6,86,59,10,28.57,26.58,25,9,25,0.02
2013-11-13,37.4,29.2,17.2,10.2,-2.2,-16.4,73,31,10,28.72,0.00,21,7,21,0.01
2013-11-14,56.5,41.0,17.1,13.4,-3.2,-18.9,84,20,10,29.78,26.61,14,4,14,0.00
2013-11-15,56.1,40.1,26.8,12.3,4.9,-3.1,45,25,10,28.23,27.42,4,1,4,0.00
2013-11-16,54.7,48.5,44.6,54.2,48.3,44.3,99,99,99,29.10,27.71,6,1,6,0.01
2013-11-17,52.0,51.2,49.5,51.7,50.4,42.0,99,97,69,29.38,28.57,7,2,7,0.20
2013-11-18,59.9,49.8,38.1,53.0,30.8,-3.3,99,52,10,30.18,27.08,26,9,26,0.07
2013-11-19,48.2,39.2,30.0,25.3,9.1,-8.3,81,37,10,29.66,27.06,25,4,25,0.04
2013-11-20,46.4,38.9,25.3,25.6,16.3,5.5,94,44,20,29.31,27.08,10,3,10,0.00
2013-11-21,52.2,45.9,31.3,49.9,44.8,28.1,99,96,80,30.01,27.75,8,1,8,0.08
2013-11-22,67.1,54.5,46.4,66.3,54.2,46.1,99,99,92,30.42,28.31,10,2,10,0.07
2013-11-23,51.1,43.3,31.5,50.8,38.3,17.2,99,84,49,28.86,26.61,24,8,24,0.07
2013-11-24,28.6,20.5,14.4,4.9,-21.4,-31.3,54,17,10,29.06,0.00,27,7,27,0.01
2013-11-25,29.3,25.0,14.7,1.1,-23.0,-31.2,34,11,10,29.14,26.86,6,2,6,0.00
2013-11-26,41.5,38.9,25.9,41.1,38.6,21.3,99,99,82,29.24,27.17,8,2,8,2.39
2013-11-27,40.8,22.1,15.4,40.6,19.4,4.5,99,90,61,28.93,26.79,35,9,35,0.08
2013-11-28,48.7,33.0,13.3,6.7,-7.6,-20.3,72,24,10,28.28,0.00,21,4,21,0.01
2013-11-29,50.4,32.1,20.1,17.9,-3.1,-20.1,91,27,10,28.99,27.02,11,3,11,0.00
2013-11-30,42.4,32.7,20.5,18.5,-1.6,-16.7,87,34,10,28.15,26.65,5,2,5,0.00